TimeMST,TemperatureF,Dew PointF,Humidity,Sea Level PressureIn,VisibilityMPH,Wind Direction,Wind SpeedMPH,Gust SpeedMPH,PrecipitationIn,Events,Conditions,WindDirDegrees,DateUTC
12:50 AM,10.4,3.2,73,30.01,3.0,NNW,34.5,44.9,0.00,Snow,Light Snow,330,2012-12-09 07:50:00
12:52 AM,10.0,3.0,73,30.14,3.0,NNW,38.0,49.5,0.00,Snow,Light Snow,330,2012-12-09 07:52:00
1:47 AM,8.6,1.4,73,30.04,4.0,NNW,35.7,47.2,0.00,,Overcast,330,2012-12-09 08:47:00
1:52 AM,9.0,1.9,73,30.16,5.0,NNW,36.8,48.3,0.00,,Overcast,330,2012-12-09 08:52:00
2:34 AM,8.6,1.4,73,30.05,5.0,NNW,36.8,48.3,0.00,,Overcast,330,2012-12-09 09:34:00
2:52 AM,8.1,1.0,73,30.20,7.0,NNW,33.4,48.3,0.00,,Overcast,330,2012-12-09 09:52:00
3:31 AM,8.6,1.4,73,30.08,6.0,NNW,33.4,46.0,0.00,,Overcast,330,2012-12-09 10:31:00
3:52 AM,8.1,1.0,73,30.25,5.0,NNW,33.4,44.9,0.00,,Overcast,330,2012-12-09 10:52:00
4:52 AM,7.0,1.0,77,30.28,3.0,NNW,32.2,41.4,0.00,Snow,Light Snow,340,2012-12-09 11:52:00
5:52 AM,7.0,-0.0,73,30.34,10.0,NNW,29.9,40.3,0.00,,Overcast,340,2012-12-09 12:52:00
6:01 AM,8.6,-0.4,67,30.19,10.0,NNW,29.9,41.4,N/A,,Overcast,340,2012-12-09 13:01:00
6:31 AM,6.8,-0.4,72,30.21,10.0,NNW,27.6,40.3,N/A,,Mostly Cloudy,340,2012-12-09 13:31:00
6:52 AM,7.0,-2.9,64,30.40,10.0,NNW,28.8,39.1,N/A,,Scattered Clouds,340,2012-12-09 13:52:00
7:52 AM,6.1,-2.9,67,30.44,10.0,NNW,27.6,35.7,N/A,,Mostly Cloudy,340,2012-12-09 14:52:00
8:52 AM,7.0,-2.9,64,30.46,10.0,NNW,27.6,33.4,N/A,,Clear,330,2012-12-09 15:52:00
9:52 AM,10.9,-0.0,61,30.49,10.0,NNW,24.2,32.2,N/A,,Clear,340,2012-12-09 16:52:00
10:52 AM,12.0,1.0,61,30.50,10.0,North,21.9,29.9,N/A,,Clear,350,2012-12-09 17:52:00
11:52 AM,14.0,1.0,56,30.48,10.0,North,17.3,-,N/A,,Clear,350,2012-12-09 18:52:00
12:52 PM,14.0,-0.9,52,30.46,10.0,North,16.1,24.2,N/A,,Clear,360,2012-12-09 19:52:00
1:52 PM,14.0,-2.0,49,30.44,10.0,North,15.0,-,N/A,,Clear,10,2012-12-09 20:52:00
2:52 PM,14.0,-0.9,52,30.44,10.0,NNE,8.1,-,N/A,,Clear,30,2012-12-09 21:52:00
3:52 PM,10.9,-2.0,56,30.43,10.0,ENE,3.5,-,N/A,,Clear,70,2012-12-09 22:52:00
4:52 PM,7.0,-2.0,67,30.43,10.0,SSE,4.6,-,N/A,,Clear,150,2012-12-09 23:52:00
5:52 PM,3.9,-2.0,76,30.41,10.0,SSE,5.8,-,N/A,,Clear,150,2012-12-10 00:52:00
6:52 PM,1.9,-2.9,80,30.38,10.0,South,4.6,-,N/A,,Clear,170,2012-12-10 01:52:00
7:52 PM,1.9,-2.9,80,30.35,10.0,SSE,5.8,-,N/A,,Clear,150,2012-12-10 02:52:00
8:52 PM,3.0,-2.9,76,30.30,10.0,SE,4.6,-,N/A,,Clear,130,2012-12-10 03:52:00
9:52 PM,1.0,-2.9,83,30.24,10.0,SE,5.8,-,N/A,,Clear,130,2012-12-10 04:52:00
10:52 PM,1.0,-4.0,79,30.19,10.0,SE,4.6,-,N/A,,Clear,130,2012-12-10 05:52:00
11:52 PM,-0.9,-5.1,83,30.15,10.0,ESE,4.6,-,N/A,,Clear,110,2012-12-10 06:52:00